Voltar ao catálogo

GLOBALSTAR M006

AtivoComunicaçõesLEO
NORAD 25307·PAYLOAD·🇺🇸 United States

Lançado Apr 24, 1998 de Cape Canaveral Space Force Station

Loading…

Próximas Passagens (próximas 24 horas)

TLE

AtualizadoSource: Space-Track

Época: Sep 14, 2026, 11:11 UTC

1 25307U 98023B   26257.46624544 -.00000091  00000-0 -31768-3 0  9996
2 25307  51.9926 164.2935 0002961 206.6137 324.7480 11.58171278269460

Acompanhe GLOBALSTAR M006 em tempo real com AllMySat

Download on the App Store